This is the latest recevied weather packets stored in our database for station/object LW9ERO-3. If no packets are shown the sender has not sent any weather packets the latest 10 day(s).
| Time | Temp. | Humidity | Pressure | Rain* | Wind** | Luminosity | Snow |
|---|---|---|---|---|---|---|---|
| 1787824443 | 11.67° C | 90% | 1006.5 hPa | 0.25 mm | - | - | - |
| 1787823903 | 11.67° C | 90% | 1006.6 hPa | 0.25 mm | - | - | - |
| 1787823363 | 11.67° C | 90% | 1006.3 hPa | 1.02 mm | - | - | - |
| 1787822824 | 11.67° C | 90% | 1006.2 hPa | 1.52 mm | - | - | - |
| 1787822284 | 11.67° C | 90% | 1006.5 hPa | 1.78 mm | - | - | - |
| 1787821743 | 11.67° C | 89% | 1006.7 hPa | 1.78 mm | - | - | - |
| 1787821204 | 11.67° C | 89% | 1005.9 hPa | 1.52 mm | - | - | - |
| 1787820843 | 11.67° C | 89% | 1006.1 hPa | 1.78 mm | - | - | - |
| 1787820303 | 11.67° C | 89% | 1007.4 hPa | 2.29 mm | - | - | - |
| 1787819763 | 11.67° C | 89% | 1007.6 hPa | 2.29 mm | - | - | - |
| 1787819223 | 11.67° C | 89% | 1008.6 hPa | 1.78 mm | - | - | - |
| 1787818684 | 11.67° C | 89% | 1008 hPa | 1.78 mm | - | - | - |
| 1787818144 | 11.67° C | 89% | 1006.2 hPa | 2.03 mm | - | - | - |
| 1787817603 | 11.67° C | 88% | 1006.9 hPa | 2.29 mm | - | - | - |
| 1787817244 | 11.67° C | 88% | 1006.5 hPa | 2.29 mm | - | - | - |
| 1787816704 | 12.22° C | 87% | 1007.3 hPa | 2.79 mm | - | - | - |
| 1787816164 | 12.22° C | 87% | 1008.9 hPa | 2.79 mm | - | - | - |
| 1787815623 | 12.22° C | 86% | 1008.8 hPa | 3.3 mm | - | - | - |
| 1787815083 | 12.22° C | 86% | 1008.5 hPa | 3.3 mm | - | - | - |
| 1787814543 | 12.22° C | 85% | 1008.6 hPa | 3.3 mm | - | - | - |
| 1787814003 | 12.22° C | 85% | 1008.3 hPa | 3.56 mm | - | - | - |
| 1787813643 | 12.22° C | 84% | 1008.4 hPa | 3.3 mm | - | - | - |
| 1787813103 | 12.22° C | 85% | 1007.9 hPa | 2.29 mm | - | - | - |
| 1787812563 | 12.22° C | 84% | 1008.8 hPa | 1.78 mm | - | - | - |
| 1787812023 | 12.22° C | 84% | 1008.4 hPa | 1.27 mm | - | - | - |
* Rain latest hour (hover to see other rain measurements)
** Current wind speed in m/s (hover to see current wind gust speed)